SCP
-0 -0 0 -0 -0 -0 -0 -0 0 0 0 0 0 0 0 0 0 -0 0 0 0 0 0 0 0 -0 -0 -0 0 -0 -0 -0 -0 -0 -0 0 0 0 -0 -0 0 -0 0 0 0 0 0 0 0
-0 -0 -0 -0 0 0 -0 -0 -0 0 0 0 0 0 0 -0 0 -0 0 0 0 0 0 0 0 0 0 0 0 -0 -0 -0 -0 0 0 0 0 -0 -0 0 0 0 -0 -0 0 0 0 0 0
0 0 -0 -0 0 -0 -0 -0 -0 0 0 0 0 0 0 -0 0 0 -0 0 0 0 0 0 0 0 0 0 0 -0 -0 -0 -0 -0 -0 -0 0 0 0 -0 -0 -0 -0 -0 -0 -0 0 0 0
0 0 0 0 0 0 0 -0 -0 -0 0 0 0 0 0 0 0 0 0 0 0 0 0 0 0 0 0 -0 -0 0 -0 -0 -0 -0 -0 -0 -0 0 0 -0 -0 -0 -0 -0 -0 -0 -0 -0 0
0 0 0 0 0 0 -0 -0 0 -0 0 0 0 0 0 0 0 -0 0 0 0 0 0 -0 0 0 0 -0 -0 -0 -0 -0 -0 -0 -0 -0 -0 -0 -0 -0 -0 -0 -0 -0 -0 -0 -0 -0 0
0 0 0 0 0 0 0 0 -0 -0 0 0 0 0 0 0 0 -0 -0 -0 -0 -0 -0 -0 0 -0 -0 -0 -0 -0 -0 -0 -0 -0 -0 -0 -0 -0 -0 -0 -0 -0 -0 -0 -0 -0 -0 -0 0
0 0 0 0 0 0 0 0 -0 -0 0 0 0 0 0 0 0 0 0 -0 0 -0 0 0 0 -0 -0 -0 -0 -0 -0 -0 -0 -0 -0 -0 -0 -0 -0 -0 -0 -0 -0 -0 -0 -0 -0 -0 0
0 0 0 0 0 0 0 0 0 0 0 0 0 0 0 0 0 0 0 0 0 0 -0 0 0 -0 -0 -0 -0 -0 -0 -0 -0 -0 -0 -0 -0 -0 -0 -0 -0 -0 -0 -0 -0 0 0 0 0
0 0 0 0 0 0 0 0 0 0 0 0 0 0 0 0 0 0 0 0 0 0 0 -0 -0 0 0 -0 -0 -0 -0 -0 -0 -0 -0 -0 0 -0 -0 0 0 0 0 0 0 0 0 0 0
0 0 0 0 0 0 0 0 0 0 0 0 0 0 0 0 0 0 0 0 -0 -0 -0 -0 -0 -0 -0 -0 -0 -0 -0 -0 -0 -0 -0 0 0 0 0 0 0 0 0 0 0 0 0 0 0
0 0 0 0 0 0 0 0 0 0 0 0 0 0 0 0 0 0 0 0 0 0 0 0 -0 -0 -0 -0 0 0 0 0 0 -0 -0 0 0 0 0 0 0 0 0 0 0 0 0 0 0
0 0 0 0 0 0 0 0 0 0 0 0 0 0 0 0 0 0 0 0 0 0 0 0 0 0 0 0 0 0 0 0 0 0 -0 0 0 0 0 0 0 0 0 0 0 0 0 0 0
0 0 0 0 0 0 0 0 0 0 0 0 0 0 0 0 0 0 0 0 0 0 0 0 0 0 0 0 0 0 0 0 0 0 0 0 0 0 0 0 0 0 0 0 0 0 0 0 0
0 0 0 0 0 0 0 0 0 0 0 0 0 0 0 0 0 0 0 0 0 0 0 0 0 0 0 0 0 0 0 0 0 0 0 0 0 0 0 0 0 0 0 0 0 0 0 0 0
0 0 0 0 0 0 0 0 0 0 0 0 0 0 0 0 0 0 0 0 0 0 0 0 0 0 0 0 0 0 0 0 0 0 0 0 0 0 0 0 0 0 0 0 0 0 0 0 0
0 0 0 0 0 0 0 0 0 0 0 0 0 0 0 0 0 0 0 0 0 0 0 0 0 0 0 0 0 0 0 0 0 0 0 0 0 0 0 0 0 0 0 0 0 0 0 0 0
0 0 0 0 0 0 0 0 0 0 0 0 0 0 0 0 0 0 0 0 0 0 0 0 0 0 0 0 0 0 0 0 0 0 0 0 0 0 0 0 0 0 0 0 0 0 0 0 0
0 0 0 0 0 0 0 0 0 0 0 0 0 0 0 0 0 0 0 0 0 0 0 0 0 0 0 0 0 0 0 0 0 0 0 0 0 0 0 0 0 0 0 0 0 0 0 0 0
0 0 0 0 0 0 0 0 0 0 0 0 0 0 0 0 0 0 0 0 0 0 0 0 0 0 0 0 0 0 0 0 0 0 0 0 0 0 0 0 0 0 0 0 0 0 0 0 0
0 0 0 0 0 0 0 0 0 0 0 0 0 0 0 0 0 0 0 0 0 0 0 0 0 0 0 0 0 0 0 0 0 0 0 0 0 0 0 0 0 0 0 0 0 0 0 0 0
0 0 0 0 0 0 0 0 0 0 0 0 0 0 0 0 0 0 0 0 0 0 0 0 0 0 0 0 0 0 0 0 0 0 0 0 0 0 0 0 0 0 0 0 0 0 0 0 0
0 0 0 0 0 0 0 -0 0 0 0 0 0 0 0 0 0 0 0 0 0 0 0 0 0 0 0 0 0 0 0 0 0 0 0 0 0 0 0 0 0 0 0 0 0 0 0 0 0
0 0 0 0 0 0 0 0 0 0 0 0 0 0 0 0 0 0 0 0 0 0 0 0 0 0 0 0 0 0 0 0 0 0 0 0 0 0 0 0 0 0 0 0 0 0 0 0 0
0 0 0 0 0 0 0 0 0 0 0 0 0 0 0 0 0 0 0 0 0 0 0 0 0 0 0 0 0 0 0 0 0 0 0 0 0 0 0 0 0 0 0 0 0 0 0 0 0
0 0 0 0 0 0 0 0 0 0 0 0 0 0 0 0 0 0 0 0 0 0 0 0 0 0 0 0 0 0 0 0 0 0 0 0 0 0 0 0 0 0 0 0 0 0 0 0 0
0 0 0 0 0 0 0 0 0 0 0 0 0 0 0 0 0 0 0 0 0 0 0 0 0 0 0 0 0 0 0 0 0 0 0 0 0 0 0 0 0 0 0 0 0 0 0 0 0
0 0 0 0 0 0 0 0 0 0 0 0 0 0 0 0 0 0 0 0 0 0 0 0 0 0 0 0 0 0 0 0 0 0 0 0 0 0 0 0 0 0 0 0 0 0 0 0 0
0 0 0 0 0 0 0 0 0 0 0 0 0 0 0 0 0 0 0 0 0 0 0 0 0 0 0 0 0 0 0 0 0 0 0 0 0 0 0 0 0 0 0 0 0 0 0 0 0
0 0 0 0 0 0 0 0 0 0 0 -0 0 0 0 0 0 0 0 0 0 0 -0 0 0 -0 0 0 0 0 0 0 0 0 0 0 0 0 0 0 0 0 0 0 0 0 0 0 0
0 0 0 0 0 0 0 0 0 0 0 0 0 0 0 0 0 -0 -0 -0 0 0 0 -0 0 -0 -0 0 0 0 0 0 0 0 0 0 0 0 0 0 0 0 0 0 0 0 0 0 0
Wind_Speed_500mb
21 23 22 9 4 3 7 8 2 12 13 4 10 6 4 7 6 6 22 37 34 30 28 27 24 22 21 18 17 13 11 13 13 14 18 19 22 27 33 34 32 34 30 33 37 36 36 34 33
18 20 10 4 4 3 9 5 10 9 6 13 9 3 3 5 5 8 29 35 37 31 28 28 28 23 19 18 16 13 14 15 14 16 22 24 26 28 33 29 35 31 30 30 34 32 33 32 32
16 13 4 5 4 10 7 4 10 13 13 7 5 1 1 3 3 24 20 36 36 33 31 28 29 25 21 19 16 10 12 12 15 17 21 23 24 26 32 30 30 30 28 29 31 30 30 30 31
14 5 7 3 10 7 6 3 7 20 4 4 2 5 1 8 8 21 31 33 34 33 33 29 29 26 23 19 16 12 13 14 17 18 22 23 23 24 30 29 26 27 27 25 27 27 27 27 27
9 2 4 4 7 5 2 7 17 16 3 5 6 2 1 7 17 26 32 32 30 31 31 31 30 29 24 21 17 15 15 15 16 17 18 20 21 22 24 24 22 24 25 24 23 25 25 25 24
2 3 6 6 7 6 4 15 19 12 4 5 5 3 2 12 20 24 31 29 28 28 30 32 33 32 27 24 19 18 16 15 15 15 16 18 18 18 19 19 20 21 22 21 21 21 21 21 20
5 4 3 5 6 7 7 24 20 16 9 5 3 4 3 19 21 27 28 28 29 27 29 31 32 33 29 26 23 21 16 14 13 12 13 15 16 16 16 16 17 17 18 18 18 18 17 17 17
3 6 9 9 11 6 13 17 11 17 11 8 10 2 4 21 26 33 31 31 32 31 29 30 32 33 32 32 29 23 18 14 12 11 13 15 15 15 15 14 15 16 16 16 15 15 13 12 12
3 9 13 11 12 8 15 16 9 11 11 13 15 7 6 20 30 36 35 36 35 35 34 32 34 36 35 34 33 30 25 20 15 14 14 16 16 16 15 14 14 15 15 15 13 11 9 8 7
10 10 13 6 15 13 17 15 16 10 18 16 14 21 14 15 35 38 39 39 39 39 39 36 35 36 38 37 36 35 32 26 22 20 19 20 19 18 17 16 14 13 13 12 10 8 6 4 3
7 20 4 2 4 11 20 18 18 14 13 21 23 24 25 22 34 40 40 38 37 38 41 40 38 38 39 40 38 38 36 32 28 26 24 23 21 22 21 20 18 16 13 11 10 7 5 4 4
13 9 6 2 0 1 8 5 13 25 14 10 18 16 27 31 32 36 42 41 41 42 41 41 41 41 41 42 41 41 39 35 32 29 28 26 24 26 25 24 22 20 17 15 11 8 8 7 6
18 15 7 4 3 5 8 10 12 22 23 25 20 19 24 34 36 37 39 42 42 45 44 43 45 44 43 44 44 43 40 37 33 32 30 28 27 27 27 27 25 22 20 18 15 13 11 10 9
18 20 13 10 7 7 11 15 9 16 33 26 31 28 27 34 38 39 45 45 44 45 51 48 48 46 46 46 46 45 42 39 37 35 33 31 30 30 29 28 27 25 23 21 18 16 14 13 12
8 13 11 17 13 14 8 20 28 43 30 29 36 42 39 37 40 44 43 47 44 40 47 54 52 52 51 49 47 48 45 44 42 40 38 36 35 33 31 30 28 27 26 23 21 18 17 15 14
12 9 24 13 17 12 17 45 31 20 26 34 37 36 33 43 47 44 47 49 50 49 47 50 58 57 57 55 53 52 52 50 49 46 44 42 40 38 36 35 32 31 29 26 24 22 20 18 18
13 21 29 20 23 10 30 33 36 24 24 39 38 33 36 40 53 60 52 51 48 51 55 54 57 62 62 62 60 58 60 58 56 54 52 48 47 45 42 40 37 36 34 31 29 27 24 23 21
20 19 16 20 13 22 31 32 37 37 24 30 34 36 37 40 55 55 61 61 58 57 59 62 63 61 68 67 66 67 69 68 66 63 61 56 54 52 50 47 44 43 41 38 36 32 29 28 22
10 28 23 9 12 11 31 36 35 52 49 50 50 50 50 51 50 50 59 66 66 64 66 67 68 69 72 77 79 79 82 77 76 73 69 65 62 60 58 56 53 51 49 44 41 38 36 34 30
28 23 19 13 8 8 27 40 34 51 58 57 57 56 58 56 58 57 63 61 71 69 73 74 75 76 78 79 83 83 84 84 82 79 78 74 71 69 67 64 62 60 56 53 51 47 43 39 36
36 32 27 21 10 21 25 52 46 42 66 61 64 63 61 61 65 64 57 69 73 74 75 80 79 82 85 82 85 89 89 88 89 92 88 83 81 77 74 71 69 66 63 61 57 52 50 44 40
31 18 17 21 12 17 4 28 35 20 26 27 31 41 49 54 58 64 67 61 71 82 82 85 86 89 89 87 93 98 100 103 97 94 93 90 88 85 82 79 76 73 71 68 64 58 56 52 47
20 11 20 23 22 23 37 20 16 26 28 34 40 47 51 51 50 53 54 58 60 69 74 79 92 97 95 92 98 103 107 108 103 97 98 97 95 92 90 87 83 82 81 75 69 65 64 62 59
18 14 8 8 10 17 33 27 38 34 36 33 44 45 44 43 39 43 46 49 60 58 59 63 72 85 98 106 110 109 111 112 112 109 108 105 100 98 96 96 95 89 86 85 77 71 68 68 65
26 26 8 13 13 19 3 25 45 12 12 18 29 32 34 31 35 38 43 50 50 43 55 63 65 72 79 94 105 117 120 114 119 118 114 114 108 106 100 100 102 100 94 92 83 78 74 72 71
29 36 11 14 11 7 4 22 17 4 12 28 39 42 36 37 38 43 48 44 34 34 39 45 50 59 65 78 90 100 113 120 120 118 121 119 114 110 97 96 99 97 98 97 90 85 80 77 75
24 28 12 1 4 6 12 24 37 37 41 53 43 48 54 42 26 34 47 29 21 40 50 46 52 52 60 70 84 89 99 111 119 121 116 120 118 115 109 98 92 90 93 94 91 90 87 83 78
17 19 8 7 10 14 19 26 28 27 15 3 18 31 19 15 28 38 46 47 52 58 47 55 62 71 59 58 73 86 88 100 107 114 118 117 114 116 115 103 95 88 88 88 85 88 86 84 78
13 21 12 6 9 11 10 15 37 37 22 31 26 10 29 34 33 42 64 77 79 81 88 85 84 72 67 60 60 75 87 92 101 107 115 119 117 113 117 106 99 89 89 88 87 87 85 84 79
36 31 34 16 16 15 17 22 24 22 10 9 11 25 36 35 46 59 69 76 80 80 78 84 77 78 70 69 59 63 73 80 92 98 104 110 112 110 112 107 99 91 90 90 91 88 86 83 81
Wind_Direction_500mb
352 356 357 10 250 118 105 126 74 141 158 147 151 204 316 13 345 31 155 163 162 163 158 156 150 146 141 137 127 102 97 125 118 117 120 115 109 104 104 100 95 96 98 91 94 95 95 94 91
353 5 5 49 325 10 89 119 176 126 101 129 142 202 200 61 73 146 147 167 163 166 165 164 160 160 153 145 132 104 95 105 113 126 124 116 110 107 104 107 100 101 103 96 94 94 93 94 91
347 16 359 56 9 45 56 191 142 117 121 155 171 203 33 78 156 156 168 165 165 166 167 171 163 166 163 154 148 125 116 103 112 126 123 118 118 116 111 109 107 111 108 99 96 97 97 95 92
357 351 63 31 79 86 43 134 152 148 156 163 264 196 89 180 166 168 165 168 166 166 168 169 167 168 170 167 162 147 133 120 115 127 128 127 122 118 116 121 118 113 114 104 100 99 100 98 93
350 348 133 112 104 111 140 155 167 169 142 182 182 53 221 207 175 170 169 170 172 171 174 171 174 172 179 178 171 160 144 134 130 134 132 128 127 123 125 127 123 113 112 112 106 103 102 99 94
292 301 205 190 133 130 169 166 164 193 164 163 239 234 169 188 173 170 170 172 176 181 179 178 178 181 183 183 182 172 154 140 132 139 140 136 133 131 127 127 121 119 120 120 115 109 105 97 95
292 252 178 157 151 168 156 165 182 185 174 211 211 260 174 185 181 178 175 175 178 184 186 184 182 186 187 188 189 182 168 156 146 146 151 149 147 138 130 127 126 130 130 125 117 115 109 100 94
323 262 180 191 200 157 150 172 186 186 177 197 186 310 73 190 183 178 184 183 184 185 189 192 185 185 189 194 195 194 193 187 177 174 168 167 158 149 141 137 140 146 141 137 131 121 112 101 96
285 237 227 195 183 152 155 199 188 198 163 191 189 190 224 199 193 189 193 193 193 191 191 195 195 192 193 196 197 201 204 205 204 198 188 182 175 166 158 157 160 159 152 151 146 131 120 110 108
226 241 240 211 185 165 165 196 177 201 192 204 201 214 226 211 207 208 207 205 203 200 198 196 198 200 202 202 204 204 209 213 214 210 200 193 189 181 176 176 179 173 165 161 156 145 139 123 105
205 238 305 265 277 178 170 176 175 190 224 228 217 204 212 221 217 221 223 223 219 212 207 203 203 204 207 210 209 209 210 214 217 212 207 203 200 193 188 189 189 190 188 185 183 181 183 188 201
215 238 262 317 262 328 192 190 187 202 217 236 217 202 222 221 226 232 227 226 223 220 218 215 211 211 212 215 215 219 218 217 217 213 210 210 206 200 198 199 199 199 204 207 213 216 221 229 244
218 209 220 240 262 257 282 225 263 237 236 239 228 235 240 233 235 231 237 239 236 232 227 224 222 219 215 218 216 219 220 219 215 215 215 212 208 206 207 208 208 208 212 215 220 228 237 246 251
196 211 225 245 235 247 250 250 251 238 235 238 236 243 252 247 239 233 233 237 240 236 234 229 226 227 224 221 220 218 219 219 218 219 219 215 213 212 213 215 216 215 217 222 225 231 237 245 260
164 216 226 229 228 239 221 239 236 251 256 256 250 251 246 249 241 239 242 241 241 246 242 237 233 228 229 227 227 225 221 222 223 223 222 219 218 218 219 219 221 222 223 224 229 234 241 248 259
209 239 242 206 202 223 206 258 238 256 232 251 253 250 248 245 249 252 244 243 243 238 240 242 237 235 232 232 232 231 230 227 228 228 226 224 223 223 223 225 223 225 228 230 233 238 245 253 258
207 239 231 253 206 216 210 258 255 250 238 255 260 258 253 253 250 247 248 247 244 243 239 237 238 235 236 234 233 235 236 234 233 231 231 229 227 227 228 227 228 229 232 235 238 242 245 252 256
202 218 219 226 194 226 237 247 262 254 249 255 264 260 261 255 255 255 253 250 248 248 246 242 238 237 234 237 234 237 238 237 236 235 234 233 231 231 232 232 231 232 233 237 241 244 246 246 242
249 225 232 236 229 250 246 252 253 263 262 263 257 259 262 262 262 262 255 255 253 249 249 246 243 237 234 232 233 234 237 236 237 238 236 235 234 234 233 234 234 235 237 239 242 243 244 247 242
222 227 226 252 245 255 269 263 252 262 259 254 257 257 258 263 262 261 258 255 256 254 250 248 247 242 238 238 238 237 241 241 240 240 239 238 236 236 235 236 237 238 238 239 239 241 245 246 241
220 225 233 248 307 271 283 279 262 244 259 256 253 253 258 258 259 259 256 257 257 258 258 255 251 249 246 241 240 239 238 241 241 240 240 238 238 237 237 237 238 239 239 240 242 242 243 244 243
228 202 239 246 277 262 12 283 275 260 254 257 246 244 250 254 258 261 259 255 258 257 259 256 256 254 251 248 242 241 240 241 245 243 243 240 239 238 237 238 238 240 241 240 242 244 244 242 239
238 162 216 232 240 270 259 271 256 246 255 260 257 254 254 254 258 264 265 272 271 275 271 269 261 257 255 253 250 247 247 248 249 248 246 243 242 240 240 239 238 239 241 242 242 242 243 244 243
146 138 140 175 228 245 241 234 270 250 256 252 259 259 263 263 265 275 281 287 284 283 282 280 270 262 259 257 255 252 251 250 248 247 247 247 244 242 239 240 239 239 241 242 242 243 244 246 246
181 175 190 208 207 243 276 210 250 278 291 279 266 262 273 272 284 288 289 298 308 299 299 293 282 272 267 263 259 257 255 252 250 250 249 249 248 244 239 240 239 238 239 241 241 242 243 245 246
193 188 194 207 208 215 129 224 257 68 270 266 263 272 281 276 290 305 311 306 300 328 341 322 293 280 273 268 264 262 260 254 253 251 251 251 252 253 250 243 242 241 240 240 240 242 243 243 245
189 213 218 313 106 266 224 254 277 264 261 260 263 269 278 289 306 338 340 327 338 346 344 351 340 312 288 275 266 266 261 256 252 251 250 250 252 253 252 247 243 241 239 239 238 239 241 241 241
186 161 163 180 217 236 248 254 254 247 277 132 257 315 303 333 335 348 350 344 325 329 330 329 337 335 322 294 269 264 265 260 257 252 247 248 251 250 251 248 243 238 239 238 235 235 236 238 238
166 197 207 203 207 234 262 245 248 273 269 257 277 330 336 339 342 338 333 326 322 319 317 319 320 328 326 311 293 270 263 261 256 249 246 250 253 251 250 249 244 237 236 236 233 230 232 234 235
215 203 194 199 201 239 267 270 264 278 174 205 303 341 339 329 325 319 316 318 319 321 319 318 317 319 326 323 301 284 268 261 257 250 244 247 251 250 249 249 244 238 235 235 232 229 229 231 231
Wind_Speed_850mb
21 23 22 9 4 3 7 8 2 12 13 4 10 6 4 7 6 6 22 37 34 30 28 27 24 22 21 18 17 13 11 13 13 14 18 19 22 27 33 34 32 34 30 33 37 36 36 34 33
18 20 10 4 4 3 9 5 10 9 6 13 9 3 3 5 5 8 29 35 37 31 28 28 28 23 19 18 16 13 14 15 14 16 22 24 26 28 33 29 35 31 30 30 34 32 33 32 32
16 13 4 5 4 10 7 4 10 13 13 7 5 1 1 3 3 24 20 36 36 33 31 28 29 25 21 19 16 10 12 12 15 17 21 23 24 26 32 30 30 30 28 29 31 30 30 30 31
14 5 7 3 10 7 6 3 7 20 4 4 2 5 1 8 8 21 31 33 34 33 33 29 29 26 23 19 16 12 13 14 17 18 22 23 23 24 30 29 26 27 27 25 27 27 27 27 27
9 2 4 4 7 5 2 7 17 16 3 5 6 2 1 7 17 26 32 32 30 31 31 31 30 29 24 21 17 15 15 15 16 17 18 20 21 22 24 24 22 24 25 24 23 25 25 25 24
2 3 6 6 7 6 4 15 19 12 4 5 5 3 2 12 20 24 31 29 28 28 30 32 33 32 27 24 19 18 16 15 15 15 16 18 18 18 19 19 20 21 22 21 21 21 21 21 20
5 4 3 5 6 7 7 24 20 16 9 5 3 4 3 19 21 27 28 28 29 27 29 31 32 33 29 26 23 21 16 14 13 12 13 15 16 16 16 16 17 17 18 18 18 18 17 17 17
3 6 9 9 11 6 13 17 11 17 11 8 10 2 4 21 26 33 31 31 32 31 29 30 32 33 32 32 29 23 18 14 12 11 13 15 15 15 15 14 15 16 16 16 15 15 13 12 12
3 9 13 11 12 8 15 16 9 11 11 13 15 7 6 20 30 36 35 36 35 35 34 32 34 36 35 34 33 30 25 20 15 14 14 16 16 16 15 14 14 15 15 15 13 11 9 8 7
10 10 13 6 15 13 17 15 16 10 18 16 14 21 14 15 35 38 39 39 39 39 39 36 35 36 38 37 36 35 32 26 22 20 19 20 19 18 17 16 14 13 13 12 10 8 6 4 3
7 20 4 2 4 11 20 18 18 14 13 21 23 24 25 22 34 40 40 38 37 38 41 40 38 38 39 40 38 38 36 32 28 26 24 23 21 22 21 20 18 16 13 11 10 7 5 4 4
13 9 6 2 0 1 8 5 13 25 14 10 18 16 27 31 32 36 42 41 41 42 41 41 41 41 41 42 41 41 39 35 32 29 28 26 24 26 25 24 22 20 17 15 11 8 8 7 6
18 15 7 4 3 5 8 10 12 22 23 25 20 19 24 34 36 37 39 42 42 45 44 43 45 44 43 44 44 43 40 37 33 32 30 28 27 27 27 27 25 22 20 18 15 13 11 10 9
18 20 13 10 7 7 11 15 9 16 33 26 31 28 27 34 38 39 45 45 44 45 51 48 48 46 46 46 46 45 42 39 37 35 33 31 30 30 29 28 27 25 23 21 18 16 14 13 12
8 13 11 17 13 14 8 20 28 43 30 29 36 42 39 37 40 44 43 47 44 40 47 54 52 52 51 49 47 48 45 44 42 40 38 36 35 33 31 30 28 27 26 23 21 18 17 15 14
12 9 24 13 17 12 17 45 31 20 26 34 37 36 33 43 47 44 47 49 50 49 47 50 58 57 57 55 53 52 52 50 49 46 44 42 40 38 36 35 32 31 29 26 24 22 20 18 18
13 21 29 20 23 10 30 33 36 24 24 39 38 33 36 40 53 60 52 51 48 51 55 54 57 62 62 62 60 58 60 58 56 54 52 48 47 45 42 40 37 36 34 31 29 27 24 23 21
20 19 16 20 13 22 31 32 37 37 24 30 34 36 37 40 55 55 61 61 58 57 59 62 63 61 68 67 66 67 69 68 66 63 61 56 54 52 50 47 44 43 41 38 36 32 29 28 22
10 28 23 9 12 11 31 36 35 52 49 50 50 50 50 51 50 50 59 66 66 64 66 67 68 69 72 77 79 79 82 77 76 73 69 65 62 60 58 56 53 51 49 44 41 38 36 34 30
28 23 19 13 8 8 27 40 34 51 58 57 57 56 58 56 58 57 63 61 71 69 73 74 75 76 78 79 83 83 84 84 82 79 78 74 71 69 67 64 62 60 56 53 51 47 43 39 36
36 32 27 21 10 21 25 52 46 42 66 61 64 63 61 61 65 64 57 69 73 74 75 80 79 82 85 82 85 89 89 88 89 92 88 83 81 77 74 71 69 66 63 61 57 52 50 44 40
31 18 17 21 12 17 4 28 35 20 26 27 31 41 49 54 58 64 67 61 71 82 82 85 86 89 89 87 93 98 100 103 97 94 93 90 88 85 82 79 76 73 71 68 64 58 56 52 47
20 11 20 23 22 23 37 20 16 26 28 34 40 47 51 51 50 53 54 58 60 69 74 79 92 97 95 92 98 103 107 108 103 97 98 97 95 92 90 87 83 82 81 75 69 65 64 62 59
18 14 8 8 10 17 33 27 38 34 36 33 44 45 44 43 39 43 46 49 60 58 59 63 72 85 98 106 110 109 111 112 112 109 108 105 100 98 96 96 95 89 86 85 77 71 68 68 65
26 26 8 13 13 19 3 25 45 12 12 18 29 32 34 31 35 38 43 50 50 43 55 63 65 72 79 94 105 117 120 114 119 118 114 114 108 106 100 100 102 100 94 92 83 78 74 72 71
29 36 11 14 11 7 4 22 17 4 12 28 39 42 36 37 38 43 48 44 34 34 39 45 50 59 65 78 90 100 113 120 120 118 121 119 114 110 97 96 99 97 98 97 90 85 80 77 75
24 28 12 1 4 6 12 24 37 37 41 53 43 48 54 42 26 34 47 29 21 40 50 46 52 52 60 70 84 89 99 111 119 121 116 120 118 115 109 98 92 90 93 94 91 90 87 83 78
17 19 8 7 10 14 19 26 28 27 15 3 18 31 19 15 28 38 46 47 52 58 47 55 62 71 59 58 73 86 88 100 107 114 118 117 114 116 115 103 95 88 88 88 85 88 86 84 78
13 21 12 6 9 11 10 15 37 37 22 31 26 10 29 34 33 42 64 77 79 81 88 85 84 72 67 60 60 75 87 92 101 107 115 119 117 113 117 106 99 89 89 88 87 87 85 84 79
36 31 34 16 16 15 17 22 24 22 10 9 11 25 36 35 46 59 69 76 80 80 78 84 77 78 70 69 59 63 73 80 92 98 104 110 112 110 112 107 99 91 90 90 91 88 86 83 81
Wind_Direction_850mb
352 356 357 10 250 118 105 126 74 141 158 147 151 204 316 13 345 31 155 163 162 163 158 156 150 146 141 137 127 102 97 125 118 117 120 115 109 104 104 100 95 96 98 91 94 95 95 94 91
353 5 5 49 325 10 89 119 176 126 101 129 142 202 200 61 73 146 147 167 163 166 165 164 160 160 153 145 132 104 95 105 113 126 124 116 110 107 104 107 100 101 103 96 94 94 93 94 91
347 16 359 56 9 45 56 191 142 117 121 155 171 203 33 78 156 156 168 165 165 166 167 171 163 166 163 154 148 125 116 103 112 126 123 118 118 116 111 109 107 111 108 99 96 97 97 95 92
357 351 63 31 79 86 43 134 152 148 156 163 264 196 89 180 166 168 165 168 166 166 168 169 167 168 170 167 162 147 133 120 115 127 128 127 122 118 116 121 118 113 114 104 100 99 100 98 93
350 348 133 112 104 111 140 155 167 169 142 182 182 53 221 207 175 170 169 170 172 171 174 171 174 172 179 178 171 160 144 134 130 134 132 128 127 123 125 127 123 113 112 112 106 103 102 99 94
292 301 205 190 133 130 169 166 164 193 164 163 239 234 169 188 173 170 170 172 176 181 179 178 178 181 183 183 182 172 154 140 132 139 140 136 133 131 127 127 121 119 120 120 115 109 105 97 95
292 252 178 157 151 168 156 165 182 185 174 211 211 260 174 185 181 178 175 175 178 184 186 184 182 186 187 188 189 182 168 156 146 146 151 149 147 138 130 127 126 130 130 125 117 115 109 100 94
323 262 180 191 200 157 150 172 186 186 177 197 186 310 73 190 183 178 184 183 184 185 189 192 185 185 189 194 195 194 193 187 177 174 168 167 158 149 141 137 140 146 141 137 131 121 112 101 96
285 237 227 195 183 152 155 199 188 198 163 191 189 190 224 199 193 189 193 193 193 191 191 195 195 192 193 196 197 201 204 205 204 198 188 182 175 166 158 157 160 159 152 151 146 131 120 110 108
226 241 240 211 185 165 165 196 177 201 192 204 201 214 226 211 207 208 207 205 203 200 198 196 198 200 202 202 204 204 209 213 214 210 200 193 189 181 176 176 179 173 165 161 156 145 139 123 105
205 238 305 265 277 178 170 176 175 190 224 228 217 204 212 221 217 221 223 223 219 212 207 203 203 204 207 210 209 209 210 214 217 212 207 203 200 193 188 189 189 190 188 185 183 181 183 188 201
215 238 262 317 262 328 192 190 187 202 217 236 217 202 222 221 226 232 227 226 223 220 218 215 211 211 212 215 215 219 218 217 217 213 210 210 206 200 198 199 199 199 204 207 213 216 221 229 244
218 209 220 240 262 257 282 225 263 237 236 239 228 235 240 233 235 231 237 239 236 232 227 224 222 219 215 218 216 219 220 219 215 215 215 212 208 206 207 208 208 208 212 215 220 228 237 246 251
196 211 225 245 235 247 250 250 251 238 235 238 236 243 252 247 239 233 233 237 240 236 234 229 226 227 224 221 220 218 219 219 218 219 219 215 213 212 213 215 216 215 217 222 225 231 237 245 260
164 216 226 229 228 239 221 239 236 251 256 256 250 251 246 249 241 239 242 241 241 246 242 237 233 228 229 227 227 225 221 222 223 223 222 219 218 218 219 219 221 222 223 224 229 234 241 248 259
209 239 242 206 202 223 206 258 238 256 232 251 253 250 248 245 249 252 244 243 243 238 240 242 237 235 232 232 232 231 230 227 228 228 226 224 223 223 223 225 223 225 228 230 233 238 245 253 258
207 239 231 253 206 216 210 258 255 250 238 255 260 258 253 253 250 247 248 247 244 243 239 237 238 235 236 234 233 235 236 234 233 231 231 229 227 227 228 227 228 229 232 235 238 242 245 252 256
202 218 219 226 194 226 237 247 262 254 249 255 264 260 261 255 255 255 253 250 248 248 246 242 238 237 234 237 234 237 238 237 236 235 234 233 231 231 232 232 231 232 233 237 241 244 246 246 242
249 225 232 236 229 250 246 252 253 263 262 263 257 259 262 262 262 262 255 255 253 249 249 246 243 237 234 232 233 234 237 236 237 238 236 235 234 234 233 234 234 235 237 239 242 243 244 247 242
222 227 226 252 245 255 269 263 252 262 259 254 257 257 258 263 262 261 258 255 256 254 250 248 247 242 238 238 238 237 241 241 240 240 239 238 236 236 235 236 237 238 238 239 239 241 245 246 241
220 225 233 248 307 271 283 279 262 244 259 256 253 253 258 258 259 259 256 257 257 258 258 255 251 249 246 241 240 239 238 241 241 240 240 238 238 237 237 237 238 239 239 240 242 242 243 244 243
228 202 239 246 277 262 12 283 275 260 254 257 246 244 250 254 258 261 259 255 258 257 259 256 256 254 251 248 242 241 240 241 245 243 243 240 239 238 237 238 238 240 241 240 242 244 244 242 239
238 162 216 232 240 270 259 271 256 246 255 260 257 254 254 254 258 264 265 272 271 275 271 269 261 257 255 253 250 247 247 248 249 248 246 243 242 240 240 239 238 239 241 242 242 242 243 244 243
146 138 140 175 228 245 241 234 270 250 256 252 259 259 263 263 265 275 281 287 284 283 282 280 270 262 259 257 255 252 251 250 248 247 247 247 244 242 239 240 239 239 241 242 242 243 244 246 246
181 175 190 208 207 243 276 210 250 278 291 279 266 262 273 272 284 288 289 298 308 299 299 293 282 272 267 263 259 257 255 252 250 250 249 249 248 244 239 240 239 238 239 241 241 242 243 245 246
193 188 194 207 208 215 129 224 257 68 270 266 263 272 281 276 290 305 311 306 300 328 341 322 293 280 273 268 264 262 260 254 253 251 251 251 252 253 250 243 242 241 240 240 240 242 243 243 245
189 213 218 313 106 266 224 254 277 264 261 260 263 269 278 289 306 338 340 327 338 346 344 351 340 312 288 275 266 266 261 256 252 251 250 250 252 253 252 247 243 241 239 239 238 239 241 241 241
186 161 163 180 217 236 248 254 254 247 277 132 257 315 303 333 335 348 350 344 325 329 330 329 337 335 322 294 269 264 265 260 257 252 247 248 251 250 251 248 243 238 239 238 235 235 236 238 238
166 197 207 203 207 234 262 245 248 273 269 257 277 330 336 339 342 338 333 326 322 319 317 319 320 328 326 311 293 270 263 261 256 249 246 250 253 251 250 249 244 237 236 236 233 230 232 234 235
215 203 194 199 201 239 267 270 264 278 174 205 303 341 339 329 325 319 316 318 319 321 319 318 317 319 326 323 301 284 268 261 257 250 244 247 251 250 249 249 244 238 235 235 232 229 229 231 231